Location: Sternwarte ZA, Rosenfeld-Brittheim
(48.2889°N, 8.6789°E)
Time: 08:11:40
(UTC+02:00)

ISS - Pass Details

Date: 10 December 2017
Orbit: 402 x 407 km, 51.6° (Epoch: 25 June)

Event Time Altitude Azimuth Distance (km) Brightness Sun altitude
Rises 19:02:09 0° 292° (WNW) 2,372 1.0 -24.1°
Reaches altitude 10° 19:04:16 10° 289° (WNW) 1,503 -0.1 -24.4°
Enters shadow 19:06:23 35° 278° (W) 701 -2.2 -24.8°
